This is the latest recevied weather packets stored in our database for station/object IV3CLI-10. If no packets are shown the sender has not sent any weather packets the latest 10 day(s).
| Time | Temp. | Humidity | Pressure | Rain* | Wind** | Luminosity | Snow |
|---|---|---|---|---|---|---|---|
| 1777497811 | 12.78° C | 100% | 1020.8 hPa | - | - | - | - |
| 1777496911 | 12.78° C | 100% | 1020.5 hPa | - | - | - | - |
| 1777496011 | 13.33° C | 100% | 1020.3 hPa | - | - | - | - |
| 1777495111 | 12.78° C | 100% | 1020.3 hPa | - | - | - | - |
| 1777494221 | 13.33° C | 100% | 1020.3 hPa | - | - | - | - |
| 1777493311 | 13.33° C | 100% | 1020.2 hPa | - | - | - | - |
| 1777492411 | 12.78° C | 100% | 1020 hPa | - | - | - | - |
| 1777491511 | 12.78° C | 100% | 1019.7 hPa | - | - | - | - |
| 1777490611 | 12.78° C | 100% | 1019.5 hPa | - | - | - | - |
| 1777489710 | 13.33° C | 100% | 1019.5 hPa | - | - | - | - |
| 1777488810 | 13.33° C | 100% | 1019.3 hPa | - | - | - | - |
| 1777487910 | 13.33° C | 100% | 1019.1 hPa | - | - | - | - |
| 1777487010 | 13.33° C | 100% | 1018.8 hPa | - | - | - | - |
| 1777486110 | 13.33° C | 100% | 1018.7 hPa | - | - | - | - |
| 1777485210 | 13.33° C | 100% | 1018.6 hPa | - | - | - | - |
| 1777484310 | 12.78° C | 100% | 1018.5 hPa | - | - | - | - |
| 1777483410 | 12.78° C | 100% | 1018.2 hPa | - | - | - | - |
| 1777482510 | 12.78° C | 100% | 1017.9 hPa | - | - | - | - |
| 1777481610 | 12.22° C | 100% | 1017.9 hPa | - | - | - | - |
| 1777480709 | 12.22° C | 100% | 1017.9 hPa | - | - | - | - |
| 1777479809 | 12.78° C | 100% | 1018 hPa | - | - | - | - |
| 1777478909 | 12.78° C | 100% | 1017.9 hPa | - | - | - | - |
| 1777478009 | 13.89° C | 100% | 1017.9 hPa | - | - | - | - |
| 1777477109 | 13.89° C | 100% | 1018.1 hPa | - | - | - | - |
| 1777476209 | 14.44° C | 100% | 1018 hPa | - | - | - | - |
* Rain since midnight (hover to see other rain measurements)
** Current wind speed in m/s (hover to see current wind gust speed)